RH
36 36 40 47 51 54 53 56 56 43 51 43 43 48 47 40 38 34 34 37 37 36 33 33 30 27 26 22 16 17 18 20 24 32 42 50 61 69 67 79 85 95 80 97
41 42 43 45 46 49 51 55 50 51 49 38 44 40 40 44 43 42 43 42 40 39 39 35 31 30 28 22 20 18 19 19 22 27 33 45 50 61 60 63 72 79 78 96
43 42 42 41 39 42 46 44 42 47 40 42 41 41 42 46 47 47 48 49 50 49 45 41 38 35 31 26 25 19 20 21 24 24 31 35 42 52 67 62 63 70 77 91
48 39 49 33 33 36 40 37 40 39 39 43 46 47 47 50 50 48 52 54 55 54 52 50 47 44 35 34 29 22 21 22 26 29 32 28 41 43 49 62 62 64 69 82
46 51 34 30 35 38 40 37 34 37 39 41 47 50 47 51 49 49 53 57 60 59 54 52 50 43 40 35 31 28 25 24 27 27 29 37 35 41 44 49 60 57 61 65
47 43 45 33 30 34 37 45 31 37 40 43 48 52 47 49 50 50 54 57 59 59 59 49 44 41 39 36 33 33 31 28 28 27 27 27 36 41 37 37 53 51 59 58
53 52 42 29 31 36 44 35 33 37 38 41 48 49 46 48 48 48 51 54 58 60 56 44 36 39 38 38 36 35 33 33 31 29 28 26 25 38 38 35 39 47 52 52
48 53 41 28 34 36 32 32 35 36 38 39 44 43 45 45 43 47 51 52 53 53 50 38 37 39 39 39 38 34 31 31 32 31 29 27 25 25 31 32 35 38 43 47
34 35 26 27 29 31 33 34 34 36 37 41 39 39 42 42 45 47 48 42 43 42 39 35 38 41 42 41 42 39 39 35 31 29 29 28 27 27 27 29 31 30 41 44
28 25 28 29 31 33 34 36 37 36 37 37 34 36 38 41 44 44 38 37 31 28 27 33 40 43 42 45 46 45 43 42 41 38 34 30 32 33 35 36 36 37 37 35
28 27 28 30 33 34 35 36 36 37 36 37 37 37 39 40 41 34 28 23 22 23 26 32 38 40 43 47 50 48 45 44 45 43 42 42 43 42 41 45 45 43 41 38
30 24 26 27 29 32 34 35 35 37 37 37 37 38 38 39 34 25 21 22 23 26 29 34 36 37 42 47 49 50 47 45 46 48 46 46 46 47 48 47 48 48 46 42
21 24 27 28 30 33 34 36 37 38 39 38 37 36 38 36 29 27 25 24 24 26 31 33 33 36 40 44 50 50 48 46 46 49 51 49 48 48 47 51 52 50 47 43
24 26 28 28 32 33 34 38 38 39 40 39 38 36 35 31 30 29 30 27 28 31 33 32 33 34 38 44 48 51 49 47 46 49 50 52 52 52 53 53 52 51 50 51
25 27 28 30 31 34 36 37 39 40 40 41 39 36 32 32 33 31 31 31 30 33 34 33 34 36 39 44 48 51 52 48 46 46 49 52 53 53 54 56 57 57 55 54
26 28 29 29 30 31 34 37 39 40 41 41 41 34 33 33 34 35 34 34 34 33 35 35 35 37 41 44 47 51 53 51 48 46 46 49 52 54 55 57 57 58 61 61
26 26 28 28 28 32 35 39 41 42 43 42 35 35 35 35 36 36 37 36 37 35 36 36 36 37 39 44 48 51 54 53 49 47 45 47 51 53 55 59 61 61 63 66
27 28 30 31 32 35 38 42 43 45 42 36 37 38 39 39 39 39 41 40 40 38 38 38 38 35 36 44 50 52 55 54 51 48 46 46 49 52 56 59 62 65 68 69
30 32 32 31 34 36 40 44 46 42 39 39 40 42 44 45 44 41 43 42 41 40 38 38 39 38 38 43 50 55 56 57 56 51 48 45 47 51 52 57 64 69 72 74
32 32 31 29 34 38 43 47 43 42 43 44 45 46 48 47 46 44 43 42 41 40 38 38 38 36 37 42 48 53 56 54 57 57 52 48 44 47 52 54 58 68 76 79
30 28 29 33 37 42 45 44 45 46 47 48 49 49 47 48 47 45 43 42 43 42 41 40 38 32 37 40 45 51 51 50 49 54 56 49 46 42 44 49 53 58 65 77
28 31 34 37 40 43 47 50 51 50 52 51 51 48 48 48 46 45 45 46 45 46 48 44 37 31 32 35 40 43 44 46 46 49 51 51 47 46 40 38 40 45 51 61
30 32 37 40 43 47 51 53 53 54 53 52 51 49 45 47 46 46 48 48 49 50 51 48 39 31 31 33 35 40 41 42 43 43 45 48 49 48 46 40 36 35 35 41
37 40 44 47 49 52 53 54 56 55 54 52 50 48 49 47 48 50 50 50 51 52 52 50 40 32 32 33 36 40 40 43 44 45 47 46 47 48 48 45 38 32 30 26
44 47 49 52 53 55 57 58 58 56 53 49 44 43 49 49 50 51 50 51 52 52 52 50 38 33 34 36 39 41 43 46 47 49 50 50 47 47 48 46 43 37 30 26
48 51 54 56 58 59 60 60 58 56 49 45 43 44 48 49 50 50 50 51 51 51 51 47 37 34 36 38 41 46 50 53 54 56 57 53 54 53 49 50 49 46 42 37
54 56 57 57 59 60 60 59 54 48 44 42 42 44 43 48 50 49 48 50 51 50 49 44 37 36 37 40 45 50 53 56 59 60 62 62 58 55 55 51 51 52 50 47